User: anonymous   Login
Location: SAPM � Hemmingford
(45.0500°N, 73.5833°W)
Time: 01:50:59
(UTC-04:00)
Language:

Iridium 75 - Orbit

View from above orbital plane
View from above orbital plane
View from above satellite
View from above satellite

Ground track
Ground track

The orbit data is extracted from the following two-line orbital elements,

1 25346U 98032E   16151.19422185  .00000167  00000-0  52463-4 0  9996
2 25346  86.3978  24.2241 0002176  87.6629  28.0454 14.34217228944770
Epoch (UTC): 30 May 2016 04:39:40
Eccentricity: 0.0002176
inclination: 86.3978°
perigee height: 776 km
apogee height: 779 km
right ascension of ascending node: 24.2241°
argument of perigee: 87.6629°
revolutions per day: 14.34217228
mean anomaly at epoch: 28.0454°
orbit number at epoch: 94477

The dashed part of the orbit path shows where the satellite is in the earth's shadow,  

DLR